Yunhai 1-04

operational
NORAD ID: 58073 Int'l Des: 2023-159 Owner: SAST Country: CN
LEOCIRCULARRETROGRADESSO

About Yunhai 1-04

Description loading...

Live Position

Loading 3D Globe...

Upcoming Passes

Altitude History

Altitude vs Time

uPlot chart will show altitude changes over time

Two-Line Element Set

1 58073U 23159A 26063.18447775 .00000396 00000-0 16165-3 0 9993
2 58073 98.5101 90.8860 0002042 120.3566 239.7820 14.32656306124768
Epoch: Mar 4, 2026 • Age: 8 hours

Current Status

Altitude 786.2 km
Velocity 7.46 km/s
Sub-Earth Point 26.81°N, 166.04°E
Launch Date Oct 15, 2023
Age 2.3 years
Type other

Technical Details

Classification Payload
Mass 800.00 kg
Dry Mass 800.00 kg
Total Mass 800.00 kg
Length 2.00 m
Diameter 1.50 m
Span 4.00 m
Shape Box + 2 Pan
Manufacturer SAST
Bus Type Yunhai-1
Phase Status In Orbit
Owner/State SAST/CN

Large Constellations

Loading constellations...